Time,TemperatureF,DewpointF,PressureIn,WindDirection,WindDirectionDegrees,WindSpeedMPH,WindSpeedGustMPH,Humidity,HourlyPrecipIn,Conditions,Clouds,dailyrainin,SoftwareType,DateUTC
2013-04-18 00:03:00,54.0,49.0,-100.00,SSE,150,7.0,10.0,85,-99.99,,,-99.99,,2013-04-18 04:03:00,
2013-04-18 00:13:00,54.0,50.0,-100.00,SE,125,8.0,10.0,87,-99.99,,,-99.99,,2013-04-18 04:13:00,
2013-04-18 00:23:00,54.0,50.0,-100.00,ESE,120,7.0,10.0,87,-99.99,,,-99.99,,2013-04-18 04:23:00,
2013-04-18 00:33:00,54.0,50.0,-100.00,ESE,120,8.0,9.0,88,-99.99,,,-99.99,,2013-04-18 04:33:00,
2013-04-18 00:43:00,54.0,50.0,-100.00,ESE,120,8.0,10.0,88,-99.99,,,-99.99,,2013-04-18 04:43:00,
2013-04-18 00:53:00,54.0,50.0,-100.00,ESE,115,9.0,10.0,87,-99.99,,,-99.99,,2013-04-18 04:53:00,
2013-04-18 01:02:00,54.0,50.0,-100.00,SE,140,9.0,11.0,87,-99.99,,,-99.99,,2013-04-18 05:02:00,
2013-04-18 01:12:00,54.0,51.0,-100.00,ESE,115,9.0,11.0,88,-99.99,,,-99.99,,2013-04-18 05:12:00,
2013-04-18 01:22:00,54.0,50.0,-100.00,SE,125,10.0,11.0,86,-99.99,,,-99.99,,2013-04-18 05:22:00,
2013-04-18 01:33:00,55.0,50.0,-100.00,South,170,10.0,11.0,83,-99.99,,,-99.99,,2013-04-18 05:33:00,
2013-04-18 01:42:00,55.0,49.0,-100.00,SSE,160,9.0,14.0,81,-99.99,,,-99.99,,2013-04-18 05:42:00,
2013-04-18 01:52:00,55.0,49.0,-100.00,SE,140,9.0,11.0,79,-99.99,,,-99.99,,2013-04-18 05:52:00,
2013-04-18 02:02:00,55.0,49.0,-100.00,South,170,9.0,11.0,80,-99.99,,,-99.99,,2013-04-18 06:02:00,
2013-04-18 02:12:00,54.0,48.0,-100.00,SSE,155,9.0,14.0,80,-99.99,,,-99.99,,2013-04-18 06:12:00,
2013-04-18 02:22:00,54.0,48.0,-100.00,ESE,105,9.0,11.0,79,-99.99,,,-99.99,,2013-04-18 06:22:00,
2013-04-18 02:32:00,55.0,48.0,-100.00,SE,135,8.0,11.0,79,-99.99,,,-99.99,,2013-04-18 06:32:00,
2013-04-18 02:42:00,54.0,48.0,-100.00,ESE,115,9.0,11.0,78,-99.99,,,-99.99,,2013-04-18 06:42:00,
2013-04-18 02:52:00,54.0,47.0,-100.00,SE,140,9.0,14.0,76,-99.99,,,-99.99,,2013-04-18 06:52:00,
2013-04-18 03:02:00,54.0,47.0,-100.00,SE,130,10.0,12.0,77,-99.99,,,-99.99,,2013-04-18 07:02:00,
2013-04-18 03:12:00,54.0,47.0,-100.00,SE,145,7.0,11.0,77,-99.99,,,-99.99,,2013-04-18 07:12:00,
2013-04-18 03:22:00,54.0,47.0,-100.00,SE,130,9.0,11.0,76,-99.99,,,-99.99,,2013-04-18 07:22:00,
2013-04-18 03:32:00,54.0,47.0,-100.00,SSE,165,8.0,11.0,75,-99.99,,,-99.99,,2013-04-18 07:32:00,
2013-04-18 03:42:00,54.0,47.0,-100.00,SE,135,11.0,14.0,76,-99.99,,,-99.99,,2013-04-18 07:42:00,
2013-04-18 03:52:00,54.0,47.0,-100.00,SE,140,9.0,12.0,76,-99.99,,,-99.99,,2013-04-18 07:52:00,
2013-04-18 04:02:00,54.0,47.0,-100.00,SE,135,9.0,11.0,76,-99.99,,,-99.99,,2013-04-18 08:02:00,
2013-04-18 04:12:00,54.0,47.0,-100.00,SE,140,9.0,12.0,75,-99.99,,,-99.99,,2013-04-18 08:12:00,
2013-04-18 04:22:00,54.0,47.0,-100.00,SE,135,9.0,11.0,76,-99.99,,,-99.99,,2013-04-18 08:22:00,
2013-04-18 04:32:00,54.0,47.0,-100.00,SE,135,10.0,14.0,76,-99.99,,,-99.99,,2013-04-18 08:32:00,
2013-04-18 04:42:00,55.0,47.0,-100.00,SE,140,10.0,14.0,76,-99.99,,,-99.99,,2013-04-18 08:42:00,
2013-04-18 04:52:00,55.0,47.0,-100.00,SE,125,11.0,15.0,75,-99.99,,,-99.99,,2013-04-18 08:52:00,
2013-04-18 05:02:00,55.0,47.0,-100.00,SE,135,11.0,13.0,74,-99.99,,,-99.99,,2013-04-18 09:02:00,
2013-04-18 05:12:00,55.0,47.0,-100.00,SE,135,11.0,14.0,74,-99.99,,,-99.99,,2013-04-18 09:12:00,
2013-04-18 05:22:00,55.0,46.0,-100.00,SE,140,12.0,16.0,72,-99.99,,,-99.99,,2013-04-18 09:22:00,
2013-04-18 05:33:00,55.0,46.0,-100.00,SE,140,11.0,15.0,72,-99.99,,,-99.99,,2013-04-18 09:33:00,
2013-04-18 05:43:00,55.0,46.0,-100.00,SE,145,11.0,18.0,71,-99.99,,,-99.99,,2013-04-18 09:43:00,
2013-04-18 05:53:00,56.0,45.0,-100.00,SE,145,11.0,18.0,67,-99.99,,,-99.99,,2013-04-18 09:53:00,
2013-04-18 06:03:00,56.0,44.0,-100.00,SE,145,10.0,18.0,65,-99.99,,,-99.99,,2013-04-18 10:03:00,
2013-04-18 06:12:00,56.0,43.0,-100.00,SE,135,11.0,16.0,63,-99.99,,,-99.99,,2013-04-18 10:12:00,
2013-04-18 06:23:00,56.0,43.0,-100.00,SE,145,11.0,16.0,62,-99.99,,,-99.99,,2013-04-18 10:23:00,
2013-04-18 06:33:00,56.0,43.0,-100.00,SSE,150,11.0,14.0,61,-99.99,,,-99.99,,2013-04-18 10:33:00,
2013-04-18 06:42:00,56.0,42.0,-100.00,South,180,11.0,15.0,60,-99.99,,,-99.99,,2013-04-18 10:42:00,
2013-04-18 06:52:00,56.0,42.0,-100.00,SSW,195,11.0,17.0,58,-99.99,,,-99.99,,2013-04-18 10:52:00,
2013-04-18 07:03:00,56.0,42.0,-100.00,South,180,11.0,18.0,59,-99.99,,,-99.99,,2013-04-18 11:03:00,
2013-04-18 07:12:00,56.0,42.0,-100.00,SSW,195,13.0,19.0,59,-99.99,,,-99.99,,2013-04-18 11:12:00,
2013-04-18 07:22:00,56.0,43.0,-100.00,South,175,13.0,18.0,61,-99.99,,,-99.99,,2013-04-18 11:22:00,
2013-04-18 07:32:00,56.0,44.0,-100.00,South,175,14.0,22.0,63,-99.99,,,-99.99,,2013-04-18 11:32:00,
2013-04-18 07:42:00,56.0,45.0,-100.00,South,185,11.0,21.0,66,-99.99,,,-99.99,,2013-04-18 11:42:00,
2013-04-18 07:52:00,56.0,48.0,-100.00,SSE,165,15.0,24.0,74,-99.99,,,-99.99,,2013-04-18 11:52:00,
2013-04-18 08:02:00,56.0,50.0,-100.00,SSE,160,13.0,21.0,79,-99.99,,,-99.99,,2013-04-18 12:02:00,
2013-04-18 08:12:00,56.0,51.0,-100.00,South,180,14.0,19.0,83,-99.99,,,-99.99,,2013-04-18 12:12:00,
2013-04-18 08:23:00,56.0,52.0,-100.00,SSW,195,14.0,21.0,86,-99.99,,,-99.99,,2013-04-18 12:23:00,
2013-04-18 08:32:00,56.0,53.0,-100.00,South,185,13.0,21.0,89,-99.99,,,-99.99,,2013-04-18 12:32:00,
2013-04-18 08:42:00,56.0,54.0,-100.00,South,170,11.0,24.0,90,-99.99,,,-99.99,,2013-04-18 12:42:00,
2013-04-18 08:52:00,56.0,54.0,-100.00,SSE,165,11.0,21.0,93,-99.99,,,-99.99,,2013-04-18 12:52:00,
2013-04-18 09:03:00,56.0,55.0,-100.00,South,190,15.0,23.0,95,-99.99,,,-99.99,,2013-04-18 13:03:00,
2013-04-18 09:12:00,56.0,55.0,-100.00,SSW,195,17.0,24.0,97,-99.99,,,-99.99,,2013-04-18 13:12:00,
2013-04-18 09:22:00,56.0,56.0,-100.00,SSW,195,18.0,26.0,98,-99.99,,,-99.99,,2013-04-18 13:22:00,
2013-04-18 09:33:00,56.0,56.0,-100.00,South,190,15.0,25.0,99,-99.99,,,-99.99,,2013-04-18 13:33:00,
2013-04-18 09:42:00,56.0,56.0,-100.00,SSW,200,16.0,24.0,99,-99.99,,,-99.99,,2013-04-18 13:42:00,
2013-04-18 09:52:00,56.0,56.0,-100.00,SSW,195,18.0,26.0,99,-99.99,,,-99.99,,2013-04-18 13:52:00,
2013-04-18 10:03:00,56.0,56.0,-100.00,SSW,195,16.0,26.0,99,-99.99,,,-99.99,,2013-04-18 14:03:00,
2013-04-18 10:13:00,56.0,-99.9,-100.00,South,170,15.0,26.0,-999,-99.99,,,-99.99,,2013-04-18 14:13:00,
2013-04-18 10:23:00,56.0,-99.9,-100.00,South,185,16.0,27.0,-999,-99.99,,,-99.99,,2013-04-18 14:23:00,
2013-04-18 10:33:00,56.0,-99.9,-100.00,SSW,200,14.0,25.0,-999,-99.99,,,-99.99,,2013-04-18 14:33:00,
2013-04-18 10:43:00,56.0,-99.9,-100.00,South,190,16.0,25.0,-999,-99.99,,,-99.99,,2013-04-18 14:43:00,
2013-04-18 10:53:00,56.0,-99.9,-100.00,SSW,205,19.0,24.0,-999,-99.99,,,-99.99,,2013-04-18 14:53:00,
2013-04-18 11:03:00,56.0,-99.9,-100.00,SSW,200,16.0,24.0,-999,-99.99,,,-99.99,,2013-04-18 15:03:00,
2013-04-18 11:12:00,56.0,-99.9,-100.00,SSW,205,16.0,24.0,-999,-99.99,,,-99.99,,2013-04-18 15:12:00,
2013-04-18 11:23:00,56.0,-99.9,-100.00,SSW,195,16.0,23.0,-999,-99.99,,,-99.99,,2013-04-18 15:23:00,
2013-04-18 11:33:00,57.0,-99.9,-100.00,South,185,13.0,21.0,-999,-99.99,,,-99.99,,2013-04-18 15:33:00,
2013-04-18 11:43:00,57.0,-99.9,-100.00,SSW,195,15.0,24.0,-999,-99.99,,,-99.99,,2013-04-18 15:43:00,
2013-04-18 11:53:00,57.0,-99.9,-100.00,South,180,17.0,25.0,-999,-99.99,,,-99.99,,2013-04-18 15:53:00,
2013-04-18 12:03:00,57.0,-99.9,-100.00,South,190,19.0,29.0,-999,-99.99,,,-99.99,,2013-04-18 16:03:00,
2013-04-18 12:13:00,57.0,-99.9,-100.00,SSW,200,14.0,26.0,-999,-99.99,,,-99.99,,2013-04-18 16:13:00,
2013-04-18 12:23:00,57.0,-99.9,-100.00,SSW,195,14.0,25.0,-999,-99.99,,,-99.99,,2013-04-18 16:23:00,
2013-04-18 12:33:00,57.0,-99.9,-100.00,South,185,16.0,24.0,-999,-99.99,,,-99.99,,2013-04-18 16:33:00,
2013-04-18 12:43:00,57.0,-99.9,-100.00,SSW,200,15.0,26.0,-999,-99.99,,,-99.99,,2013-04-18 16:43:00,
2013-04-18 12:53:00,57.0,-99.9,-100.00,SSW,205,22.0,27.0,-999,-99.99,,,-99.99,,2013-04-18 16:53:00,
2013-04-18 13:03:00,56.0,-99.9,-100.00,SSW,200,17.0,26.0,-999,-99.99,,,-99.99,,2013-04-18 17:03:00,
2013-04-18 13:13:00,57.0,-99.9,-100.00,SSW,200,12.0,22.0,-999,-99.99,,,-99.99,,2013-04-18 17:13:00,
2013-04-18 13:22:00,57.0,-99.9,-100.00,South,190,13.0,24.0,-999,-99.99,,,-99.99,,2013-04-18 17:22:00,
2013-04-18 13:33:00,57.0,-99.9,-100.00,South,185,13.0,23.0,-999,-99.99,,,-99.99,,2013-04-18 17:33:00,
2013-04-18 13:43:00,56.0,-99.9,-100.00,South,185,14.0,21.0,-999,-99.99,,,-99.99,,2013-04-18 17:43:00,
2013-04-18 13:52:00,57.0,-99.9,-100.00,SSW,200,14.0,21.0,-999,-99.99,,,-99.99,,2013-04-18 17:52:00,
2013-04-18 14:03:00,57.0,-99.9,-100.00,South,190,14.0,22.0,-999,-99.99,,,-99.99,,2013-04-18 18:03:00,
2013-04-18 14:13:00,57.0,-99.9,-100.00,SSW,195,17.0,26.0,-999,-99.99,,,-99.99,,2013-04-18 18:13:00,
2013-04-18 14:23:00,57.0,-99.9,-100.00,South,190,18.0,23.0,-999,-99.99,,,-99.99,,2013-04-18 18:23:00,
2013-04-18 14:33:00,57.0,-99.9,-100.00,SSW,195,16.0,26.0,-999,-99.99,,,-99.99,,2013-04-18 18:33:00,
2013-04-18 14:43:00,57.0,-99.9,-100.00,South,185,15.0,26.0,-999,-99.99,,,-99.99,,2013-04-18 18:43:00,
2013-04-18 14:53:00,58.0,-99.9,-100.00,SSW,200,16.0,24.0,-999,-99.99,,,-99.99,,2013-04-18 18:53:00,
2013-04-18 15:03:00,58.0,-99.9,-100.00,South,190,16.0,27.0,-999,-99.99,,,-99.99,,2013-04-18 19:03:00,
2013-04-18 15:13:00,59.0,-99.9,-100.00,SSW,205,14.0,23.0,-999,-99.99,,,-99.99,,2013-04-18 19:13:00,
2013-04-18 15:22:00,59.0,-99.9,-100.00,South,190,18.0,24.0,-999,-99.99,,,-99.99,,2013-04-18 19:22:00,
2013-04-18 15:33:00,60.0,-99.9,-100.00,SSW,200,16.0,24.0,-999,-99.99,,,-99.99,,2013-04-18 19:33:00,
2013-04-18 15:43:00,61.0,-99.9,-100.00,South,180,16.0,26.0,-999,-99.99,,,-99.99,,2013-04-18 19:43:00,
2013-04-18 15:53:00,61.0,-99.9,-100.00,SSW,195,21.0,29.0,-999,-99.99,,,-99.99,,2013-04-18 19:53:00,
2013-04-18 16:03:00,62.0,-99.9,-100.00,South,185,18.0,34.0,-999,-99.99,,,-99.99,,2013-04-18 20:03:00,
2013-04-18 16:12:00,63.0,-99.9,-100.00,South,185,14.0,23.0,-999,-99.99,,,-99.99,,2013-04-18 20:12:00,
2013-04-18 16:22:00,63.0,63.0,-100.00,SSW,200,15.0,28.0,99,-99.99,,,-99.99,,2013-04-18 20:22:00,
2013-04-18 16:32:00,62.0,62.0,-100.00,SSW,195,24.0,32.0,99,-99.99,,,-99.99,,2013-04-18 20:32:00,
2013-04-18 16:42:00,62.0,62.0,-100.00,South,190,19.0,37.0,99,-99.99,,,-99.99,,2013-04-18 20:42:00,
2013-04-18 16:52:00,62.0,62.0,-100.00,SSW,195,17.0,34.0,99,-99.99,,,-99.99,,2013-04-18 20:52:00,
2013-04-18 17:03:00,62.0,62.0,-100.00,SSW,205,16.0,30.0,99,-99.99,,,-99.99,,2013-04-18 21:03:00,
2013-04-18 17:12:00,61.0,-99.9,-100.00,SSW,205,19.0,27.0,-999,-99.99,,,-99.99,,2013-04-18 21:12:00,
2013-04-18 17:22:00,61.0,-99.9,-100.00,South,190,16.0,24.0,-999,-99.99,,,-99.99,,2013-04-18 21:22:00,
2013-04-18 17:33:00,61.0,-99.9,-100.00,SSW,200,14.0,29.0,-999,-99.99,,,-99.99,,2013-04-18 21:33:00,
2013-04-18 17:43:00,61.0,-99.9,-100.00,SSW,200,14.0,29.0,-999,-99.99,,,-99.99,,2013-04-18 21:43:00,
2013-04-18 17:53:00,61.0,-99.9,-100.00,South,175,14.0,24.0,-999,-99.99,,,-99.99,,2013-04-18 21:53:00,
2013-04-18 18:03:00,61.0,-99.9,-100.00,SSW,195,13.0,29.0,-999,-99.99,,,-99.99,,2013-04-18 22:03:00,
2013-04-18 18:13:00,61.0,-99.9,-100.00,SSE,165,15.0,23.0,-999,-99.99,,,-99.99,,2013-04-18 22:13:00,
2013-04-18 18:23:00,61.0,-99.9,-100.00,SSW,200,18.0,24.0,-999,-99.99,,,-99.99,,2013-04-18 22:23:00,
2013-04-18 18:33:00,60.0,-99.9,-100.00,South,175,13.0,21.0,-999,-99.99,,,-99.99,,2013-04-18 22:33:00,
2013-04-18 18:42:00,60.0,-99.9,-100.00,South,180,13.0,24.0,-999,-99.99,,,-99.99,,2013-04-18 22:42:00,
2013-04-18 18:53:00,60.0,-99.9,-100.00,South,170,13.0,19.0,-999,-99.99,,,-99.99,,2013-04-18 22:53:00,
2013-04-18 19:04:00,61.0,-99.9,-100.00,South,190,13.0,19.0,-999,-99.99,,,-99.99,,2013-04-18 23:04:00,
2013-04-18 19:12:00,61.0,61.0,-100.00,South,190,12.0,16.0,99,-99.99,,,-99.99,,2013-04-18 23:12:00,
2013-04-18 19:22:00,61.0,60.0,-100.00,South,180,12.0,16.0,98,-99.99,,,-99.99,,2013-04-18 23:22:00,
2013-04-18 19:32:00,61.0,60.0,-100.00,South,175,11.0,17.0,98,-99.99,,,-99.99,,2013-04-18 23:32:00,
2013-04-18 19:42:00,61.0,60.0,-100.00,South,175,12.0,17.0,97,-99.99,,,-99.99,,2013-04-18 23:42:00,
2013-04-18 19:52:00,61.0,60.0,-100.00,South,185,11.0,19.0,96,-99.99,,,-99.99,,2013-04-18 23:52:00,
2013-04-18 20:01:00,61.0,60.0,-100.00,South,170,11.0,14.0,98,-99.99,,,-99.99,,2013-04-19 00:01:00,
2013-04-18 20:12:00,60.0,60.0,-100.00,South,170,9.0,14.0,98,-99.99,,,-99.99,,2013-04-19 00:12:00,
2013-04-18 20:22:00,60.0,60.0,-100.00,South,180,11.0,16.0,98,-99.99,,,-99.99,,2013-04-19 00:22:00,
2013-04-18 20:32:00,60.0,59.0,-100.00,South,175,8.0,15.0,98,-99.99,,,-99.99,,2013-04-19 00:32:00,
2013-04-18 20:42:00,60.0,59.0,-100.00,South,175,8.0,15.0,98,-99.99,,,-99.99,,2013-04-19 00:42:00,
2013-04-18 20:51:00,60.0,60.0,-100.00,South,190,11.0,15.0,98,-99.99,,,-99.99,,2013-04-19 00:51:00,
2013-04-18 21:01:00,60.0,60.0,-100.00,SSW,205,13.0,16.0,98,-99.99,,,-99.99,,2013-04-19 01:01:00,
2013-04-18 21:11:00,60.0,59.0,-100.00,SSW,205,13.0,20.0,97,-99.99,,,-99.99,,2013-04-19 01:11:00,
2013-04-18 21:21:00,61.0,60.0,-100.00,SSW,210,14.0,20.0,97,-99.99,,,-99.99,,2013-04-19 01:21:00,
2013-04-18 21:32:00,61.0,59.0,-100.00,SSW,200,14.0,25.0,96,-99.99,,,-99.99,,2013-04-19 01:32:00,
2013-04-18 21:42:00,60.0,60.0,-100.00,SSW,205,14.0,19.0,97,-99.99,,,-99.99,,2013-04-19 01:42:00,
2013-04-18 21:52:00,61.0,60.0,-100.00,SSW,195,14.0,23.0,97,-99.99,,,-99.99,,2013-04-19 01:52:00,
2013-04-18 22:02:00,61.0,60.0,-100.00,SSW,200,14.0,19.0,97,-99.99,,,-99.99,,2013-04-19 02:02:00,
2013-04-18 22:11:00,61.0,60.0,-100.00,SW,215,15.0,22.0,97,-99.99,,,-99.99,,2013-04-19 02:11:00,
2013-04-18 22:21:00,61.0,60.0,-100.00,SW,220,16.0,21.0,97,-99.99,,,-99.99,,2013-04-19 02:21:00,
2013-04-18 22:32:00,60.0,60.0,-100.00,SW,220,14.0,20.0,98,-99.99,,,-99.99,,2013-04-19 02:32:00,
2013-04-18 22:42:00,60.0,60.0,-100.00,SW,215,15.0,25.0,98,-99.99,,,-99.99,,2013-04-19 02:42:00,
2013-04-18 22:52:00,60.0,60.0,-100.00,SW,215,14.0,25.0,99,-99.99,,,-99.99,,2013-04-19 02:52:00,
2013-04-18 23:01:00,60.0,60.0,-100.00,SSW,205,14.0,21.0,99,-99.99,,,-99.99,,2013-04-19 03:01:00,
2013-04-18 23:12:00,60.0,-99.9,-100.00,SSW,210,14.0,21.0,-999,-99.99,,,-99.99,,2013-04-19 03:12:00,
2013-04-18 23:22:00,60.0,-99.9,-100.00,SW,215,14.0,21.0,-999,-99.99,,,-99.99,,2013-04-19 03:22:00,
2013-04-18 23:33:00,60.0,-99.9,-100.00,SW,220,15.0,21.0,-999,-99.99,,,-99.99,,2013-04-19 03:33:00,
2013-04-18 23:43:00,61.0,60.0,-100.00,SW,220,18.0,23.0,99,-99.99,,,-99.99,,2013-04-19 03:43:00,
2013-04-18 23:53:00,61.0,60.0,-100.00,SW,220,13.0,24.0,99,-99.99,,,-99.99,,2013-04-19 03:53:00,